Regional Weather Roundup
Issued by NWS

Home | Current Version | Previous Version | Text Only | Print | Product List | Glossary Off
Versions: 1 2 3 4 5 6 7 8 9 10 11 12 13 14 15 16 17 18 19 20 21 22 23 24 25 26 27 28 29 30 31 32 33 34 35 36 37 38 39 40 41 42 43 44 45 46 47 48 49 50

000
ASUS43 KDTX 230201
RWRMI
MICHIGAN HOURLY REGIONAL WEATHER ROUNDUP
NATIONAL WEATHER SERVICE DETROIT/PONTIAC MI
1000 PM EDT TUE JUL 22 2014

NOTE: "FAIR" INDICATES FEW OR NO CLOUDS BELOW 12,000 FEET WITH NO
SIGNIFICANT WEATHER AND/OR OBSTRUCTION TO VISIBILITY.

MIZ047>049-052>055-059>063-066>070-074>076-081>083-230300-
SOUTHEAST LOWER MICHIGAN

CITY           SKY/WX    TMP DP  RH WIND       PRES   REMARKS
ADRIAN         FAIR      79  66  64 W3        29.98S
ALMA           CLOUDY    79  67  67 SW6       29.91S
ANN ARBOR      FAIR      78  65  63 SW6       29.97R
BAD AXE        CLOUDY    81  67  62 SW9       29.90S
CARO           CLOUDY    82  69  64 SW6       29.90F
DETROIT CITY   FAIR      86  65  49 SW14      29.94S
DETROIT        MOCLDY    82  66  58 S13       29.96S
FLINT          CLOUDY    83  67  58 SW7       29.93F
GROSSE ILE     FAIR      82  66  57 SW5       29.94S
HILLSDALE      FAIR      79  67  66 SW3       29.99F
HOWELL         CLOUDY    80  66  62 SW5       29.95F

CITY           SKY/WX    TMP DP  RH WIND       PRES   REMARKS
JACKSON        CLOUDY    80  68  66 SW7       29.97F
LAMBERTVILLE   FAIR      82  64  54 SW5       29.98S
LANSING        CLOUDY    82  67  60 SW13      29.93F
LAPEER         CLOUDY    82  66  58 SW6       29.94S
MASON          CLOUDY    79  67  68 CALM      29.94F
MONROE         FAIR      82  64  54 SW7       29.95S
MT. CLEMENS    FAIR      85  66  53 SW13      29.93R
PONTIAC        CLOUDY    82  66  58 SW8       29.95S
PORT HOPE        N/A     82  67  60 VRB5      29.87S
PORT HURON     MOCLDY    77  68  73 S3        29.93R
TRI CITIES     MOCLDY    81  69  67 SW6       29.91F
TROY           FAIR      84  64  51 SW8       29.96R
SAGINAW HB     CLOUDY    81  66  61 SW7       29.89F
$$
MIZ043>046-050>051-056>058-064>065-071>073-077>080-230300-
SOUTHWEST LOWER MICHIGAN

CITY           SKY/WX    TMP DP  RH WIND       PRES   REMARKS
BATTLE CREEK   CLOUDY    81  68  64 SW9       29.96F
BENTON HARBOR  CLOUDY    81  71  71 SW7       29.94F
BIG RAPIDS     MOCLDY    78  68  69 W13       29.92R
COLDWATER      MOCLDY    79  69  71 SW5       29.98S
FREMONT        HVY RAIN  69  63  83 SW20G28   29.92R
HOLLAND        MOCLDY    83  71  67 SW14      29.93F
GRAND RAPIDS   CLOUDY    83  72  69 SW14      29.93F
IONIA          FAIR      80  68  67 SW9       29.92S
KALAMAZOO      CLOUDY    81  69  67 SW8       29.96S
LUDINGTON      FAIR      69  68  95 CALM      29.95R FOG
MARSHALL       CLOUDY    80  68  67 SW3       29.96F
MOUNT PLEASANT CLOUDY    80  68  67 SW6       29.91R
MUSKEGON       MOCLDY    78  69  73 NW12      29.97R THUNDER
SOUTH HAVEN    MOCLDY    81  73  76 SW5       29.93F
$$
MIZ016>042-230300-
NORTHERN LOWER MICHIGAN

CITY           SKY/WX    TMP DP  RH WIND       PRES   REMARKS
ALPENA         CLOUDY    73  68  84 NW6       29.90R THUNDER
BEAVER ISLAND  CLOUDY    62  59  89 NW13G23   29.99R
BELLAIRE       CLOUDY    68  58  71 NW14G26   29.96R
CADILLAC       CLOUDY    73  71  96 NW10      29.96R
CHARLEVOIX     CLOUDY    65  59  80 NW9       30.00R
FRANKFORT      CLOUDY    69  61  74 N13G20    29.97R
GAYLORD        FAIR      69  62  78 VRB7G20   29.95R
GRAYLING       MOCLDY    74  74  98 NW6       29.96R
HARBOR SPRINGS CLOUDY    66  57  73 W8G20     29.95R
HOUGHTON LAKE  TSTM      70  68  93 N8        29.94R FOG
MANISTEE       MOCLDY    70  63  78 N7        29.96R
OSCODA         FAIR      81  67  62 SW10      29.87R
PELLSTON       FAIR      64  57  78 NW14G22   29.94R
TRAVERSE CITY  CLOUDY    70  60  70 N16G24    29.96R
$$
MIZ007>008-015-230300-
EASTERN UPPER MICHIGAN

CITY           SKY/WX    TMP DP  RH WIND       PRES   REMARKS
KINROSS        CLOUDY    64  57  77 W12G17    29.90R
MACKINAC ISLAN CLOUDY    64  57  79 W12       29.92R
NEWBERRY       CLOUDY    57  53  86 NW15G22   29.96R
S. S. MARIE    LGT RAIN  56  54  93 NW12G22   29.90R FOG
MUNISING         N/A     57  51  80 NW17G28   30.04R
$$
MIZ004>006-011>014-085-230300-
CENTRAL UPPER MICHIGAN

CITY           SKY/WX    TMP DP  RH WIND       PRES   REMARKS
MANISTIQUE     CLOUDY    62  56  81 NW17G26   29.98R
ESCANABA       CLOUDY    66  54  63 N12G18    30.02R
MENOMINEE      FAIR      68  57  68 N14G24    30.01R
SAWYER-GWINN   CLOUDY    63  55  77 N16G24    30.06R
$$
MIZ001>003-009>011-084-230300-
WESTERN UPPER MICHIGAN

CITY           SKY/WX    TMP DP  RH WIND       PRES   REMARKS
IRON MOUNTAIN  FAIR      64  55  72 N10       30.07R
HOUGHTON       FAIR      59  53  80 N8        30.09R
COPPER HARBOR    N/A     60  54  80 N14       30.07R
$$

ABBREVIATIONS USED IN REMARKS
   TC - TEMPERATURE IN CELSIUS
  WCI - WIND CHILL INDEX
   HX - HEAT INDEX
  VSB - VISIBILITY



USA.gov is the U.S. government's official web portal to all federal, state and local government web resources and services.